Location: Fond Mahaut
(18.0707°N, 63.0465°W)
Time: 05:14:50
(UTC+00:00)

Cosmos 1733 Rocket - Pass Details

Date: 08 December 2019
Orbit: 604 x 627 km, 82.5° (Epoch: 18 January)

Event Time Altitude Azimuth Distance (km) Brightness Sun altitude
Rises 22:11:23 0° 348° (NNW) 2,879 6.4 -8.5°
Reaches altitude 10° 22:13:38 10° 344° (NNW) 1,977 5.6 -9.0°
Maximum altitude 22:17:54 55° 267° (W) 746 3.9 -9.9°
Drops below altitude 10° 22:22:13 10° 189° (S) 1,985 6.1 -10.9°
Sets 22:24:28 0° 185° (S) 2,892 6.9 -11.4°
